Starlink 11630

operational
NORAD ID: 63111 Int'l Des: 2025-039 Owner: SPXS Country: US Constellation: starlink
LEOCIRCULAR

关于 Starlink 11630

正在加载描述...

实时位置

正在加载3D地球...

即将过境

高度历史

Altitude vs Time

uPlot chart will show altitude changes over time

两行轨道根数

1 63111U 25039H 26034.49099387 .00281018 00000-0 21151-2 0 9997
2 63111 42.9992 83.2736 0001306 294.0416 66.0315 15.70898138 54239
Epoch: Feb 3, 2026 • Age: 10 hours

当前状态

高度 367.9 km
速度 7.69 km/s
星下点 -42.28°S, 128.14°W
发射日期 Feb 27, 2025
运行时间 0.9 years
类型 internet

技术详情

分类 Payload
质量 960.00 kg
干质量 910.00 kg
总质量 960.00 kg
长度 0.30 m
直径 4.10 m
跨度 29.00 m
形状 Box + pan
制造商 SPXS
平台类型 Starlink V2MD
阶段状态 In Orbit
所有者/国家 SPXS/US

大型星座

Loading constellations...